Flag for Israel Weather past 2 weeks in Bnei Brak, Israel

Now
64 °F

Clear.


Feels Like: 64 °F
Forecast: 67 / 85 °F
Wind: 1 mph from North

Location: Dov Airport

Current Time: Mar 27, 2015 at 1:31:57 AM

Latest Report: Mar 26, 2015 at 10:50 PM


Visibility: 10 mi

Pressure: 29.98 "Hg

Humidity: 68%

Dew point: 54 °F

Location of Bnei BrakLocation

Historic Weather in Bnei Brak — Graph

°F

Bnei Brak temperature yesterday

Maximum temperature yesterday: 70 °F (at 12:50 PM)
Minimum temperature yesterday: 55 °F (at 4:50 AM)
Average temperature yesterday: 64 °F

Past Weeks' High & Low Weather Summary

 TemperatureHumidityPressure
High70 °F (Mar 26, 12:50 PM)94% (Mar 21, 4:01 PM)30.15 "Hg (Mar 21, 4:01 PM)
Low52 °F (Mar 18, 5:50 AM)46% (Mar 16, 10:50 AM)29.80 "Hg (Mar 11, 10:50 PM)
Average62 °F65%30.02 "Hg
* Reported Mar 11 10:50 PM — Mar 26 10:50 PM, Bnei Brak, Weather by CustomWeather, © 2015

Note: Actual official high and low records may vary slightly from our data, if they occured in-between our weather recording intervals... More about our weather records

Advertising

Bnei Brak weather history for previous 24 hours

 ConditionsComfort  
Time TempWeatherWind HumidityBarometerVisibility
10:50 PM
Thu, Mar 26
64 °FClear.1 mph68%29.98 "Hg10 mi
9:50 PM64 °FClear.1 mph68%29.98 "Hg10 mi
8:50 PM64 °FClear.2 mph68%29.98 "Hg10 mi
7:50 PM64 °FClear.2 mph73%29.98 "Hg10 mi
6:50 PM64 °FClear.6 mph73%29.98 "Hg10 mi
5:50 PM64 °FSunny.10 mph73%29.98 "Hg10 mi
4:50 PM66 °FSunny.14 mph68%29.98 "Hg10 mi
3:50 PM68 °FSunny.14 mph69%29.98 "Hg10 mi
2:50 PM68 °FSunny.14 mph73%29.98 "Hg10 mi
1:50 PM68 °FSunny.10 mph69%29.98 "Hg10 mi
12:50 PM70 °FSunny.7 mph53%30.01 "Hg10 mi
11:50 AM68 °FSunny.6 mph60%30.04 "Hg10 mi
10:50 AM66 °FSunny.6 mph56%30.04 "Hg10 mi
9:50 AM64 °FSunny.5 mph56%30.04 "Hg10 mi
8:50 AM63 °FSunny.5 mph64%30.04 "Hg10 mi
7:50 AM63 °FSunny.1 mph59%30.01 "Hg10 mi
6:50 AM57 °FSunny.2 mph67%30.01 "Hg10 mi
5:50 AM55 °FSunny.5 mph72%29.98 "Hg10 mi
4:50 AM55 °FClear.5 mph82%29.98 "Hg10 mi
Weather by CustomWeather, © 2015

See weather overviewHow to use our weather pages